星链-31142 (STARLINK-31142 )

导读 | 豆包AI

STARLINK-31142是美国太空探索技术公司星链互联网卫星星座的一员,于2024年1月14日发射。星链项目旨在构建全球卫星互联网星座,为地面提供低延迟宽带网络服务。该卫星入轨后承担卫星通信任务,拓展星链系统全球覆盖范围,服务全球偏远地区与移动场景网络接入需求。

基本信息
目录编号:
58779
目录名称:
STARLINK-31142
国际标识:
2024-011Q
轨道中心:
EARTH
卫星名称:
星链-31142
卫星全名:
星链-31142 (STARLINK-31142 )
卫星状态:
在轨 (已飞行837 天)
发射日期:
2024-01-14 UTC
国别 :
美国 (US)
星等 :
--
轨道信息
数据来源 国际轨道数据
星历时间: 2026-04-30T15:52:39+0800
13小时前
查看轨道信息
半长轴: 6853.347km
偏心率: 0.0000971
轨道倾角: 53.159°
近地点辐角 88.561°
升交点赤经 134.005°
平近点角 271.551°
近地点: 474.544km
远地点: 475.876km
周期: 94.105分钟
每日圈数: 15.302017
详细信息
固有亮度:
5
最大亮度:
0.3
卫星平台:
Starlink v2.0 mini
覆盖范围:
全球
运营商:
太空探索技术公司
运营商所在国:
美国
制造商(研发单位):
太空探索技术公司
制造商所在国:
美国
使用方式:
暂无
卫星简介
星链(Starlink)计划是由太空探索技术公司(SpaceX)提出的一个巨型低轨卫星互联网星座项目,计划在2019年至2024年间在太空搭建由约1.2万颗卫星组成的“星链”网络,其中1584颗将部署在地球上空550千米处的近地轨道,并从2020年开始工作。该卫星仍在工作。
2D轨道图
3D轨道图
轨道高度分析图
轨道倾角分析图
轨道综合分析图
查看轨道综合分析图